Hourly Data Report for October 26, 2013

All times are specified in Local Standard Time (LST). Add 1 hour to adjust for Daylight Saving Time where and when it is observed.

OTTAWA INTL A
ONTARIO

45°19'00.000" N
75°40'00.000" W
114.90 m
6106001
71628
YOW

Download Data

Hourly Data (October 2013)
Hourly Data Report for October 26, 2013
Temp Definition
°C
Dew Point Temp Definition
°C
Rel Hum Definition
%
Wind Dir Definition
10's deg

Wind Spd Definition
km/h
Visibility Definition
km
Stn Press Definition
kPa
Hmdx Definition


Wind Chill Definition


Weather Definition


TIME
00:00 Legend Double Dagger 0.4 -2.7 80 19 7 24.1 100.35     LegendNANA
01:00 Legend Double Dagger 1.3 -1.8 80 17 11 24.1 100.28     Mostly Cloudy
02:00 Legend Double Dagger 1.1 -1.6 82 17 8 24.1 100.18     LegendNANA
03:00 Legend Double Dagger 1.3 -0.9 85 16 7 24.1 100.06     LegendNANA
04:00 Legend Double Dagger 2.5 0.1 84 17 12 24.1 100.03     Cloudy
05:00 Legend Double Dagger 3.3 0.2 80 20 12 24.1 99.96     Rain
06:00 Legend Double Dagger 3.4 0.6 82 18 18 16.1 99.87     Rain
07:00 Legend Double Dagger 3.0 1.5 90 16 17 19.3 99.79     Rain
08:00 Legend Double Dagger 2.6 1.6 93 17 15 19.3 99.72     Rain
09:00 Legend Double Dagger 2.5 1.8 95 16 21 6.4 99.60     Rain,Fog
10:00 Legend Double Dagger 2.6 1.7 94 16 22 6.4 99.46     Rain,Fog
11:00 Legend Double Dagger 3.4 2.4 93 18 23 9.7 99.35     Rain,Fog
12:00 Legend Double Dagger 3.8 2.8 93 18 24 8.1 99.24     Rain,Fog
13:00 Legend Double Dagger 4.5 3.5 93 19 24 6.4 99.18     Rain,Fog
14:00 Legend Double Dagger 4.8 3.5 91 20 28 6.4 99.15     Rain,Fog
15:00 Legend Double Dagger 5.0 3.8 92 20 23 19.3 99.17     LegendNANA
16:00 Legend Double Dagger 5.3 3.6 89 21 23 19.3 99.19     Cloudy
17:00 Legend Double Dagger 5.2 3.2 87 21 22 24.1 99.21     LegendNANA
18:00 Legend Double Dagger 5.1 3.1 87 21 17 19.3 99.26     Rain
19:00 Legend Double Dagger 5.0 3.2 88 22 18 24.1 99.24     Cloudy
20:00 Legend Double Dagger 5.0 3.5 90 21 17 24.1 99.21     LegendNANA
21:00 Legend Double Dagger 5.1 3.4 89 20 18 16.1 99.21     Rain
22:00 Legend Double Dagger 4.8 3.2 89 22 17 24.1 99.20     Cloudy
23:00 Legend Double Dagger 4.6 3.3 91 21 16 24.1 99.21     LegendNANA

Notes on Data Quality.

Legend

  • E = Estimated
  • M = Missing
  • NA = Not Available
  • ‡ = Partner data that is not subject to review by the National Climate Archives
Date modified: